ANA281 RJTT-RJOS

Flight info

Callsign ANA281
Flight time 0h 59m
Altitude 32000
Route LAXAS Y56 TOHME Y54 KOHWA Y544 SINGU Y542 DATIS
Aircraft A321/M-SDE3FGHIRWY/LB1

Departure

Time 2026-05-09 01:15
Airport Tokyo Haneda International Airport (RJTT)

Arrival

Time 2026-05-09 02:14
Airport Tokushima Awaodori Airport / JMSDF Tokushima Air Base (RJOS)
Time Latitude Longitude Altitude Speed Heading
2026-05-09 00:43 35.54822 139.79272 28 ft 0 kts 323°
2026-05-09 01:00 35.54820 139.79274 28 ft 3 kts 323°
2026-05-09 01:00 35.54798 139.79293 28 ft 4 kts 323°
2026-05-09 01:00 35.54777 139.79313 28 ft 4 kts 323°
2026-05-09 01:00 35.54755 139.79333 28 ft 4 kts 323°
2026-05-09 01:01 35.54733 139.79353 28 ft 4 kts 323°
2026-05-09 01:01 35.54714 139.79371 27 ft 4 kts 325°
2026-05-09 01:01 35.54694 139.79380 28 ft 4 kts 22°
2026-05-09 01:01 35.54674 139.79361 28 ft 3 kts 57°
2026-05-09 01:02 35.54669 139.79352 28 ft 0 kts 58°
2026-05-09 01:06 35.54671 139.79356 28 ft 1 kts 59°
2026-05-09 01:07 35.54674 139.79361 28 ft 1 kts 58°
2026-05-09 01:07 35.54678 139.79370 28 ft 4 kts 58°
2026-05-09 01:07 35.54696 139.79406 28 ft 7 kts 59°
2026-05-09 01:07 35.54720 139.79455 28 ft 6 kts 59°
2026-05-09 01:08 35.54740 139.79496 27 ft 5 kts 59°
2026-05-09 01:08 35.54766 139.79547 30 ft 12 kts 59°
2026-05-09 01:08 35.54789 139.79662 26 ft 13 kts 129°
2026-05-09 01:08 35.54720 139.79729 24 ft 14 kts 148°
2026-05-09 01:09 35.54579 139.79834 25 ft 34 kts 148°
2026-05-09 01:09 35.54342 139.80006 22 ft 41 kts 151°
2026-05-09 01:09 35.54096 139.80171 21 ft 40 kts 151°
2026-05-09 01:09 35.53903 139.80299 26 ft 12 kts 176°
2026-05-09 01:10 35.53845 139.80236 23 ft 12 kts 235°
2026-05-09 01:10 35.53787 139.80129 22 ft 21 kts 240°
2026-05-09 01:10 35.53694 139.80030 23 ft 13 kts 155°
2026-05-09 01:10 35.53629 139.80077 25 ft 14 kts 152°
2026-05-09 01:11 35.53512 139.80158 29 ft 25 kts 150°
2026-05-09 01:11 35.53331 139.80293 35 ft 36 kts 148°
2026-05-09 01:11 35.53088 139.80460 47 ft 39 kts 150°
2026-05-09 01:11 35.52960 139.80554 46 ft 15 kts 149°
2026-05-09 01:12 35.52869 139.80572 49 ft 13 kts 210°
2026-05-09 01:12 35.52807 139.80506 47 ft 11 kts 222°
2026-05-09 01:12 35.52751 139.80443 48 ft 13 kts 223°
2026-05-09 01:12 35.52667 139.80347 48 ft 17 kts 223°
2026-05-09 01:13 35.52587 139.80258 51 ft 15 kts 221°
2026-05-09 01:13 35.52510 139.80231 50 ft 12 kts 156°
2026-05-09 01:13 35.52458 139.80298 51 ft 9 kts 122°
2026-05-09 01:13 35.52434 139.80349 53 ft 5 kts 120°
2026-05-09 01:14 35.52432 139.80394 53 ft 8 kts 78°
2026-05-09 01:14 35.52464 139.80441 52 ft 13 kts 38°
2026-05-09 01:14 35.52726 139.80706 49 ft 85 kts 41°
2026-05-09 01:14 35.53305 139.81363 50 ft 141 kts 44°
2026-05-09 01:15 35.54130 139.82293 322 ft 163 kts 40°
2026-05-09 01:15 35.54938 139.83253 1002 ft 163 kts 39°
2026-05-09 01:15 35.55785 139.84252 1470 ft 175 kts 39°
2026-05-09 01:15 35.56656 139.85404 1857 ft 195 kts 56°
2026-05-09 01:16 35.57053 139.87008 2274 ft 205 kts 89°
2026-05-09 01:16 35.56708 139.88746 2556 ft 220 kts 113°
2026-05-09 01:16 35.56060 139.90504 2866 ft 230 kts 116°
2026-05-09 01:17 35.54209 139.94065 3514 ft 269 kts 137°
2026-05-09 01:17 35.52649 139.95408 3985 ft 281 kts 158°
2026-05-09 01:17 35.50749 139.95934 4636 ft 282 kts 185°
2026-05-09 01:17 35.48847 139.95368 5277 ft 283 kts 208°
2026-05-09 01:18 35.47158 139.94223 6258 ft 272 kts 216°
2026-05-09 01:18 35.45582 139.92973 7203 ft 268 kts 220°
2026-05-09 01:18 35.44143 139.91544 7994 ft 265 kts 229°
2026-05-09 01:18 35.42857 139.89924 8731 ft 266 kts 231°
2026-05-09 01:19 35.41578 139.88275 9447 ft 268 kts 231°
2026-05-09 01:19 35.40306 139.86613 10177 ft 268 kts 232°
2026-05-09 01:19 35.38994 139.84877 10466 ft 287 kts 231°
2026-05-09 01:19 35.37596 139.83009 10603 ft 308 kts 231°
2026-05-09 01:20 35.36098 139.81013 10732 ft 328 kts 231°
2026-05-09 01:20 35.34506 139.78902 10912 ft 345 kts 231°
2026-05-09 01:20 35.32861 139.76726 11434 ft 350 kts 230°
2026-05-09 01:20 35.31180 139.74556 12059 ft 354 kts 227°
2026-05-09 01:21 35.29306 139.72573 12712 ft 355 kts 224°
2026-05-09 01:21 35.27424 139.70613 13372 ft 356 kts 224°
2026-05-09 01:21 35.25540 139.68649 14009 ft 356 kts 224°
2026-05-09 01:21 35.23652 139.66683 14649 ft 356 kts 224°
2026-05-09 01:22 35.21759 139.64711 15222 ft 357 kts 224°
2026-05-09 01:22 35.19868 139.62740 15832 ft 357 kts 224°
2026-05-09 01:22 35.17975 139.60772 16412 ft 357 kts 224°
2026-05-09 01:22 35.16083 139.58803 16948 ft 358 kts 225°
2026-05-09 01:23 35.14184 139.56827 17481 ft 359 kts 224°
2026-05-09 01:23 35.12282 139.54846 17996 ft 360 kts 224°
2026-05-09 01:23 35.10374 139.52856 18494 ft 361 kts 226°
2026-05-09 01:23 35.08683 139.50622 18963 ft 358 kts 236°
2026-05-09 01:24 35.07419 139.48014 19435 ft 358 kts 245°
2026-05-09 01:24 35.06618 139.45136 19901 ft 361 kts 255°
2026-05-09 01:24 35.06121 139.42120 20344 ft 362 kts 256°
2026-05-09 01:24 35.05625 139.39098 20790 ft 363 kts 256°
2026-05-09 01:25 35.05125 139.36071 21212 ft 365 kts 256°
2026-05-09 01:25 35.04622 139.33030 21631 ft 366 kts 256°
2026-05-09 01:25 35.04113 139.29979 22018 ft 368 kts 256°
2026-05-09 01:25 35.03592 139.26908 22415 ft 369 kts 255°
2026-05-09 01:26 35.03072 139.23838 22788 ft 371 kts 255°
2026-05-09 01:26 35.02558 139.20789 23160 ft 372 kts 255°
2026-05-09 01:26 35.02037 139.17693 23515 ft 374 kts 255°
2026-05-09 01:26 35.01513 139.14570 23861 ft 375 kts 255°
2026-05-09 01:27 35.00987 139.11449 24203 ft 376 kts 255°
2026-05-09 01:27 35.00458 139.08317 24531 ft 377 kts 255°
2026-05-09 01:27 34.99927 139.05182 24847 ft 378 kts 255°
2026-05-09 01:27 34.99391 139.02031 25130 ft 380 kts 255°
2026-05-09 01:28 34.98865 138.98865 25498 ft 382 kts 257°
2026-05-09 01:28 34.98628 138.95611 25835 ft 386 kts 262°
2026-05-09 01:28 34.98465 138.92339 26154 ft 387 kts 262°
2026-05-09 01:28 34.98300 138.89060 26413 ft 388 kts 262°
2026-05-09 01:29 34.98133 138.85782 26770 ft 386 kts 261°
2026-05-09 01:29 34.97970 138.82567 27133 ft 385 kts 262°
2026-05-09 01:29 34.97801 138.79319 27563 ft 383 kts 261°
2026-05-09 01:29 34.97626 138.76082 27987 ft 381 kts 262°
2026-05-09 01:30 34.97453 138.72877 28390 ft 378 kts 262°
2026-05-09 01:30 34.97281 138.69685 28780 ft 376 kts 262°
2026-05-09 01:30 34.97111 138.66514 29152 ft 374 kts 262°
2026-05-09 01:30 34.96940 138.63358 29508 ft 372 kts 261°
2026-05-09 01:31 34.96770 138.60212 29859 ft 371 kts 261°
2026-05-09 01:31 34.96600 138.57082 30206 ft 369 kts 261°
2026-05-09 01:31 34.96430 138.53962 30549 ft 367 kts 261°
2026-05-09 01:31 34.96258 138.50857 30909 ft 365 kts 261°
2026-05-09 01:32 34.96085 138.47780 31282 ft 363 kts 261°
2026-05-09 01:32 34.95914 138.44715 31656 ft 360 kts 261°
2026-05-09 01:32 34.95746 138.41714 31906 ft 358 kts 261°
2026-05-09 01:32 34.95578 138.38700 31952 ft 354 kts 261°
2026-05-09 01:33 34.95243 138.32744 31951 ft 351 kts 261°
2026-05-09 01:33 34.94904 138.26815 31951 ft 350 kts 261°
2026-05-09 01:34 34.94559 138.20892 31952 ft 350 kts 261°
2026-05-09 01:34 34.94215 138.14977 31953 ft 351 kts 261°
2026-05-09 01:35 34.93869 138.09040 31945 ft 351 kts 261°
2026-05-09 01:35 34.93524 138.03116 31930 ft 350 kts 261°
2026-05-09 01:36 34.93175 137.97187 31944 ft 350 kts 261°
2026-05-09 01:36 34.92820 137.91272 31961 ft 350 kts 261°
2026-05-09 01:37 34.92463 137.85409 31972 ft 349 kts 261°
2026-05-09 01:37 34.92109 137.79530 31981 ft 348 kts 261°
2026-05-09 01:38 34.91751 137.73653 31977 ft 347 kts 261°
2026-05-09 01:38 34.91304 137.67821 31975 ft 344 kts 256°
2026-05-09 01:39 34.89802 137.62318 31975 ft 342 kts 249°
2026-05-09 01:39 34.88165 137.56871 31983 ft 342 kts 250°
2026-05-09 01:40 34.86528 137.51436 31987 ft 342 kts 250°
2026-05-09 01:40 34.84901 137.46001 32001 ft 342 kts 250°
2026-05-09 01:41 34.83333 137.40532 32006 ft 342 kts 250°
2026-05-09 01:41 34.81781 137.35068 32014 ft 341 kts 250°
2026-05-09 01:42 34.80484 137.30532 32020 ft 341 kts 250°
2026-05-09 01:42 34.78924 137.25072 32027 ft 341 kts 250°
2026-05-09 01:43 34.77362 137.19622 32034 ft 341 kts 250°
2026-05-09 01:43 34.75791 137.14165 32040 ft 341 kts 250°
2026-05-09 01:44 34.74213 137.08720 32048 ft 342 kts 250°
2026-05-09 01:44 34.72628 137.03265 32058 ft 342 kts 250°
2026-05-09 01:45 34.71046 136.97848 32064 ft 342 kts 250°
2026-05-09 01:45 34.69097 136.92574 32068 ft 342 kts 245°
2026-05-09 01:46 34.66918 136.87433 32069 ft 342 kts 245°
2026-05-09 01:46 34.64729 136.82286 32072 ft 342 kts 245°
2026-05-09 01:47 34.62546 136.77138 32074 ft 342 kts 245°
2026-05-09 01:47 34.60364 136.72000 32078 ft 343 kts 245°
2026-05-09 01:48 34.58172 136.66864 32081 ft 343 kts 245°
2026-05-09 01:48 34.55972 136.61725 32082 ft 343 kts 245°
2026-05-09 01:49 34.53782 136.56588 32084 ft 343 kts 245°
2026-05-09 01:49 34.51598 136.51476 32086 ft 343 kts 245°
2026-05-09 01:50 34.49398 136.46343 32084 ft 343 kts 245°
2026-05-09 01:50 34.47190 136.41201 32081 ft 344 kts 245°
2026-05-09 01:51 34.44980 136.36057 32084 ft 344 kts 244°
2026-05-09 01:51 34.42759 136.30906 32086 ft 345 kts 245°
2026-05-09 01:52 34.40531 136.25748 32096 ft 346 kts 244°
2026-05-09 01:52 34.38295 136.20580 32094 ft 346 kts 244°
2026-05-09 01:53 34.36080 136.15450 32097 ft 346 kts 245°
2026-05-09 01:53 34.33858 136.10290 32096 ft 346 kts 245°
2026-05-09 01:54 34.31631 136.05077 32092 ft 347 kts 245°
2026-05-09 01:54 34.29424 135.99909 32083 ft 348 kts 245°
2026-05-09 01:55 34.27186 135.94715 31529 ft 352 kts 245°
2026-05-09 01:55 34.26022 135.92012 30290 ft 362 kts 244°
2026-05-09 01:55 34.24865 135.89312 29100 ft 372 kts 243°
2026-05-09 01:56 34.23647 135.86463 27868 ft 381 kts 244°
2026-05-09 01:56 34.22440 135.83643 26454 ft 381 kts 244°
2026-05-09 01:56 34.21232 135.80821 24763 ft 377 kts 244°
2026-05-09 01:56 34.20035 135.78027 23088 ft 372 kts 245°
2026-05-09 01:57 34.18849 135.75264 21414 ft 369 kts 244°
2026-05-09 01:57 34.17671 135.72522 19770 ft 366 kts 245°
2026-05-09 01:57 34.16505 135.69808 18150 ft 362 kts 245°
2026-05-09 01:57 34.15336 135.67090 16516 ft 357 kts 244°
2026-05-09 01:58 34.14217 135.64489 14958 ft 352 kts 245°
2026-05-09 01:58 34.13077 135.61841 13349 ft 348 kts 246°
2026-05-09 01:58 34.11958 135.59244 11965 ft 352 kts 245°
2026-05-09 01:58 34.10837 135.56641 11553 ft 343 kts 246°
2026-05-09 01:59 34.09763 135.54155 11293 ft 334 kts 247°
2026-05-09 01:59 34.08695 135.51690 11160 ft 321 kts 246°
2026-05-09 01:59 34.07694 135.49385 11037 ft 308 kts 247°
2026-05-09 01:59 34.06716 135.47136 10902 ft 296 kts 247°
2026-05-09 02:00 34.05793 135.45005 10752 ft 278 kts 248°
2026-05-09 02:00 34.04914 135.42974 10478 ft 270 kts 247°
2026-05-09 02:00 34.04047 135.40962 10232 ft 270 kts 248°
2026-05-09 02:00 34.03189 135.38956 9973 ft 269 kts 248°
2026-05-09 02:01 34.02330 135.36944 9829 ft 271 kts 249°
2026-05-09 02:01 34.01461 135.34913 9708 ft 274 kts 249°
2026-05-09 02:01 34.00584 135.32862 9584 ft 275 kts 248°
2026-05-09 02:01 33.99707 135.30814 9460 ft 275 kts 249°
2026-05-09 02:02 33.98827 135.28755 9334 ft 276 kts 249°
2026-05-09 02:02 33.97945 135.26696 9206 ft 277 kts 248°
2026-05-09 02:02 33.97060 135.24632 8982 ft 279 kts 249°
2026-05-09 02:02 33.96163 135.22549 8587 ft 280 kts 249°
2026-05-09 02:03 33.95261 135.20457 8176 ft 282 kts 249°
2026-05-09 02:03 33.94356 135.18366 7765 ft 280 kts 249°
2026-05-09 02:03 33.93462 135.16300 7364 ft 277 kts 248°
2026-05-09 02:03 33.92577 135.14257 6958 ft 274 kts 249°
2026-05-09 02:04 33.91864 135.12167 6452 ft 264 kts 264°
2026-05-09 02:04 33.91720 135.10031 5831 ft 250 kts 282°
2026-05-09 02:04 33.92104 135.08040 5214 ft 241 kts 298°
2026-05-09 02:04 33.92832 135.06262 4588 ft 236 kts 301°
2026-05-09 02:05 33.93576 135.04512 3958 ft 233 kts 301°
2026-05-09 02:05 33.94302 135.02786 3403 ft 228 kts 301°
2026-05-09 02:05 33.94994 135.01125 3100 ft 215 kts 300°
2026-05-09 02:05 33.95639 134.99573 3013 ft 200 kts 301°
2026-05-09 02:06 33.96238 134.98131 2988 ft 184 kts 301°
2026-05-09 02:06 33.96796 134.96793 2981 ft 174 kts 301°
2026-05-09 02:06 33.97339 134.95502 3002 ft 172 kts 301°
2026-05-09 02:07 33.98567 134.93074 3000 ft 168 kts 314°
2026-05-09 02:07 33.99359 134.92036 2897 ft 168 kts 315°
2026-05-09 02:07 34.00143 134.90998 2810 ft 168 kts 315°
2026-05-09 02:07 34.00932 134.89950 2734 ft 169 kts 315°
2026-05-09 02:08 34.01723 134.88899 2662 ft 170 kts 314°
2026-05-09 02:08 34.02513 134.87846 2587 ft 169 kts 314°
2026-05-09 02:08 34.03306 134.86790 2510 ft 170 kts 314°
2026-05-09 02:08 34.04101 134.85731 2446 ft 171 kts 314°
2026-05-09 02:09 34.04900 134.84664 2367 ft 172 kts 314°
2026-05-09 02:09 34.05700 134.83597 2295 ft 172 kts 314°
2026-05-09 02:09 34.06500 134.82530 2221 ft 172 kts 314°
2026-05-09 02:09 34.07304 134.81459 2145 ft 171 kts 314°
2026-05-09 02:10 34.08104 134.80392 2067 ft 171 kts 314°
2026-05-09 02:10 34.08902 134.79331 2004 ft 172 kts 314°
2026-05-09 02:10 34.09678 134.78226 1901 ft 173 kts 308°
2026-05-09 02:10 34.10226 134.76928 1832 ft 174 kts 293°
2026-05-09 02:11 34.10516 134.75541 1750 ft 168 kts 286°
2026-05-09 02:11 34.10765 134.74179 1681 ft 165 kts 286°
2026-05-09 02:11 34.11014 134.72831 1610 ft 164 kts 286°
2026-05-09 02:11 34.11263 134.71501 1528 ft 157 kts 287°
2026-05-09 02:12 34.11491 134.70272 1410 ft 146 kts 285°
2026-05-09 02:12 34.11676 134.69091 1231 ft 142 kts 283°
2026-05-09 02:12 34.11856 134.67927 993 ft 140 kts 288°
2026-05-09 02:12 34.12091 134.66789 838 ft 140 kts 290°
2026-05-09 02:13 34.12344 134.65662 671 ft 140 kts 287°
2026-05-09 02:13 34.12528 134.64510 510 ft 141 kts 281°
2026-05-09 02:13 34.12744 134.63366 330 ft 140 kts 291°
2026-05-09 02:13 34.12982 134.62227 84 ft 141 kts 285°
2026-05-09 02:14 34.13192 134.61139 21 ft 120 kts 283°
2026-05-09 02:14 34.13341 134.60337 24 ft 73 kts 283°
2026-05-09 02:14 34.13415 134.59906 25 ft 32 kts 282°
2026-05-09 02:14 34.13456 134.59686 22 ft 13 kts 282°
2026-05-09 02:15 34.13516 134.59631 22 ft 11 kts 357°
2026-05-09 02:15 34.13586 134.59649 22 ft 10 kts 17°
2026-05-09 02:15 34.13616 134.59726 22 ft 16 kts 94°
2026-05-09 02:15 34.13585 134.59916 22 ft 30 kts 103°
2026-05-09 02:16 34.13533 134.60197 22 ft 36 kts 102°
2026-05-09 02:16 34.13480 134.60488 22 ft 35 kts 103°
2026-05-09 02:16 34.13424 134.60775 22 ft 35 kts 102°
2026-05-09 02:16 34.13374 134.61059 22 ft 34 kts 103°
2026-05-09 02:17 34.13322 134.61338 22 ft 34 kts 102°
2026-05-09 02:17 34.13279 134.61589 22 ft 27 kts 102°
2026-05-09 02:17 34.13283 134.61706 22 ft 5 kts 19°
2026-05-09 02:17 34.13300 134.61699 22 ft 5 kts 345°
2026-05-09 02:18 34.13358 134.61701 22 ft 8 kts 11°
2026-05-09 02:18 34.13384 134.61708 22 ft 1 kts 13°
2026-05-09 02:18 34.13385 134.61709 22 ft 0 kts 13°